Location: Juzet
(42.9779°N, 0.7597°E)
Time: 18:10:26
(UTC+00:00)

Cosmos 1733 Rocket - Pass Details

Date: 14 July 2020
Orbit: 604 x 627 km, 82.5° (Epoch: 11 August)

Event Time Altitude Azimuth Distance (km) Brightness Sun altitude
Exits shadow 03:06:40 19° 236° (WSW) 1,451 4.3 -12.8°
Maximum altitude 03:08:58 31° 285° (WNW) 1,075 4.0 -12.5°
Drops below altitude 10° 03:12:49 10° 348° (NNW) 1,961 6.1 -12.0°
Sets 03:15:15 0° 359° (N) 2,871 7.2 -11.7°
